Location: Taukkyan
(23.1052°N, 94.0030°E)
Time: 11:31:56
(UTC+00:00)

Okean 2 Rocket - Pass Details

Date: 06 July 2020
Orbit: 618 x 640 km, 82.5° (Epoch: 14 August)

Event Time Altitude Azimuth Distance (km) Brightness Sun altitude
Rises 22:05:38 0° 170° (S) 2,887 6.3 -12.7°
Reaches altitude 10° 22:07:56 10° 163° (SSE) 1,980 5.5 -12.2°
Maximum altitude 22:12:05 42° 92° (E) 879 4.3 -11.4°
Drops below altitude 10° 22:16:13 10° 22° (NNE) 1,981 6.5 -10.6°
Sets 22:18:31 0° 15° (NNE) 2,888 7.2 -10.1°
